Notices

What's New in latest Release from April 7th, 2021:

- Updated Glossary, including Speed of Maximum Gust, and Total Hourly Precipitation

- Updated national and regional climate services offices contacts and prices information

- Addition of station inventory lists for 1981-2010, 1971-2000, and 1961-1990 Normals.

If you haven't already, please take our survey and provide feedback about our website: https://eccc.sondage-survey.ca/f/LanguageSelection.aspx?s=442ca660-fcf1-47c0-95a9-59707d6fd709

Hourly Data Report for April 11, 2016

MIRAMICHI RCS
NEW BRUNSWICK

47°00'34.000" N
65°27'54.000" W
33.00 m
8100989
71744
ACQ

Download Data

Hourly Data (April 2016)
Hourly Data Report for April 11, 2016
TIME
LST
Temp Definition
°C
Dew Point Definition
°C
Rel Hum Definition
%
Precip. Amount Definition
mm

Wind Dir Definition
10's deg

Wind Spd Definition
km/h
Visibility Definition
km
Stn Press Definition
kPa
Hmdx Definition


Wind Chill Definition


Weather Definition


00:00 -2.7 -14.2 41 0.0 26 13   101.92   -7 LegendNANA
01:00 -3.2 -15.2 39 0.0 25 8   101.98   -6 LegendNANA
02:00 -4.5 -13.4 50 0.0 26 10   102.07   -9 LegendNANA
03:00 -5.4 -13.3 54 0.0 23 6   102.16   -8 LegendNANA
04:00 -6.0 -12.2 61 0.0 24 7   102.23   -9 LegendNANA
05:00 -6.0 -12.1 62 0.0 25 10   102.29   -10 LegendNANA
06:00 -6.2 -12.1 63 0.0 26 8   102.34   -10 LegendNANA
07:00 -4.4 -11.4 58 0.0 25 9   102.40   -8 LegendNANA
08:00 -2.4 -11.6 49 0.0 24 12   102.46   -7 LegendNANA
09:00 -0.5 -13.9 36 0.0 24 9   102.44   -4 LegendNANA
10:00 1.0 -13.0 34 0.0 24 13   102.43     LegendNANA
11:00 2.2 -12.1 34 0.0 23 18   102.37     LegendNANA
12:00 3.8 -11.5 32 0.0 21 5   102.30     LegendNANA
13:00 4.5 -9.6 35 0.0 19 21   102.23     LegendNANA
14:00 4.7 -7.5 41 0.0 18 17   102.13     LegendNANA
15:00 4.8 -6.2 45 0.0 18 15   102.03     LegendNANA
16:00 4.6 -2.1 62 0.0 16 15   102.02     LegendNANA
17:00 4.2 -1.4 67 0.0 18 24   101.94     LegendNANA
18:00 4.3 -1.2 67 0.0 18 26   101.88     LegendNANA
19:00 3.8 -0.4 74 0.0 16 17   101.81     LegendNANA
20:00 3.7 0.0 77 0.0 15 11   101.80     LegendNANA
21:00 3.0 0.9 86 0.7 13 14   101.70     LegendNANA
22:00 3.1 1.5 89 0.9 16 13   101.66     LegendNANA
23:00 3.2 1.8 90 0.9 15 18   101.53     LegendNANA

Notes on Data Quality.

Legend

  • E = Estimated
  • M = Missing
  • NA = Not Available*
  • [empty] = Indicates an unobserved value
Date modified: